Torna al catalogo

TITAN 3C TRANSTAGE R/B

AttivoHEO
NORAD 3956·ROCKET BODY·🇺🇸 United States

Lanciato May 23, 1969 da Cape Canaveral Space Force Station

Loading…

Prossimi Passaggi (prossime 24 ore)

TLE

AggiornatoSource: Space-Track

Epoca: Sep 15, 2026, 09:32 UTC

1  3956U 69046F   26258.39774962 -.00000818  00000-0  00000+0 0  9995
2  3956  17.6297  36.6357 8005447 272.9210   1.5715  0.46198671 21518

Traccia TITAN 3C TRANSTAGE R/B in tempo reale con AllMySat

Download on the App Store